TimeMST,TemperatureF,Dew PointF,Humidity,Sea Level PressureIn,VisibilityMPH,Wind Direction,Wind SpeedMPH,Gust SpeedMPH,PrecipitationIn,Events,Conditions,WindDirDegrees,DateUTC
12:03 AM,28.4,17.6,64,29.93,10.0,SSE,13.8,-,N/A,,Scattered Clouds,160,2012-12-08 07:03:00
12:54 AM,28.0,17.1,63,29.90,10.0,SE,16.1,24.2,N/A,,Partly Cloudy,130,2012-12-08 07:54:00
1:54 AM,21.9,14.0,72,29.91,10.0,ESE,10.4,-,N/A,,Partly Cloudy,120,2012-12-08 08:54:00
2:54 AM,24.1,15.1,69,29.90,10.0,East,11.5,-,N/A,,Clear,90,2012-12-08 09:54:00
3:54 AM,24.8,15.8,69,29.83,10.0,East,9.2,-,N/A,,Clear,100,2012-12-08 10:54:00
4:54 AM,21.9,15.1,75,29.90,10.0,East,10.4,-,N/A,,Clear,90,2012-12-08 11:54:00
5:54 AM,21.9,15.1,75,29.91,10.0,East,10.4,-,N/A,,Clear,80,2012-12-08 12:54:00
6:54 AM,19.9,14.0,78,29.92,10.0,NNE,3.5,-,N/A,,Clear,30,2012-12-08 13:54:00
7:54 AM,21.9,14.0,72,29.89,10.0,NE,3.5,-,N/A,,Partly Cloudy,50,2012-12-08 14:54:00
8:54 AM,28.0,17.1,63,29.86,10.0,ENE,9.2,-,N/A,,Clear,70,2012-12-08 15:54:00
9:54 AM,30.9,18.0,59,29.83,10.0,Variable,4.6,-,N/A,,Partly Cloudy,0,2012-12-08 16:54:00
10:54 AM,36.0,18.0,48,29.76,10.0,East,10.4,-,N/A,,Partly Cloudy,90,2012-12-08 17:54:00
11:54 AM,41.0,18.0,40,29.69,10.0,East,8.1,-,N/A,,Partly Cloudy,100,2012-12-08 18:54:00
12:54 PM,45.0,18.0,34,29.65,10.0,ESE,9.2,-,N/A,,Partly Cloudy,110,2012-12-08 19:54:00
1:54 PM,48.9,16.0,27,29.64,10.0,ESE,6.9,-,N/A,,Partly Cloudy,120,2012-12-08 20:54:00
2:54 PM,54.0,9.0,17,29.61,10.0,West,20.7,26.5,N/A,,Partly Cloudy,260,2012-12-08 21:54:00
3:54 PM,51.1,10.0,19,29.64,10.0,WSW,23.0,26.5,N/A,,Partly Cloudy,250,2012-12-08 22:54:00
4:54 PM,46.0,12.0,25,29.71,10.0,WNW,8.1,-,N/A,,Scattered Clouds,290,2012-12-08 23:54:00
5:54 PM,37.9,14.0,38,29.78,10.0,East,9.2,-,N/A,,Scattered Clouds,100,2012-12-09 00:54:00
6:54 PM,34.0,19.0,54,29.84,10.0,NE,26.5,32.2,N/A,,Scattered Clouds,50,2012-12-09 01:54:00
7:54 PM,30.9,18.0,59,29.86,10.0,NE,23.0,-,N/A,,Scattered Clouds,50,2012-12-09 02:54:00
8:54 PM,28.0,14.0,56,29.92,10.0,NNE,25.3,31.1,N/A,,Scattered Clouds,20,2012-12-09 03:54:00
9:54 PM,25.0,12.0,58,29.94,10.0,NNE,20.7,-,N/A,,Mostly Cloudy,20,2012-12-09 04:54:00
10:54 PM,24.1,15.1,69,29.94,10.0,NNE,16.1,-,N/A,,Mostly Cloudy,30,2012-12-09 05:54:00
11:54 PM,23.0,14.0,68,29.94,6.0,NE,12.7,20.7,0.00,Snow,Light Snow,40,2012-12-09 06:54:00